Flag for U.S.A. Weather past 2 weeks in Simi Valley, California, U.S.A.

Now
78 °F

Clear.


Feels Like: 79 °F
Forecast: 62 / 87 °F
Wind: 6 mph from Southeast

Location: Van Nuys Airport

Current Time: Sep 1, 2014 at 9:50:39 PM

Latest Report: Sep 1, 2014 at 8:51 PM


Visibility: 10 mi

Pressure: 29.78 "Hg

Humidity: 50%

Dew point: 58 °F

Location of Simi ValleyLocation

Historic Weather in Simi Valley — Graph

°F

Simi Valley temperature yesterday

Maximum temperature yesterday: 91 °F (at 2:51 PM)
Minimum temperature yesterday: 69 °F (at 5:51 AM)
Average temperature yesterday: 78 °F

Past Weeks' High & Low Weather Summary

 TemperatureHumidityPressure
High100 °F (Aug 28, 1:51 PM)87% (Aug 23, 2:51 AM)30.02 "Hg (Aug 23, 2:51 AM)
Low62 °F (Aug 25, 6:51 AM)10% (Aug 28, 6:51 PM)29.70 "Hg (Aug 30, 5:51 PM)
Average77 °F49%29.86 "Hg
* Reported Aug 17 8:51 PM — Sep 1 8:51 PM, Simi Valley, Weather by CustomWeather, © 2014

Note: Actual official high and low records may vary slightly from our data, if they occured in-between our weather recording intervals... More about our weather records

Advertising

Simi Valley weather history for previous 24 hours

 ConditionsComfort  
Time TempWeatherWind HumidityBarometerVisibility
8:51 PM
Sep 1
78 °FClear.6 mph50%29.78 "Hg10 mi
7:51 PM80 °FSunny.7 mph45%29.76 "Hg10 mi
6:51 PM85 °FSunny.6 mph24%29.74 "Hg10 mi
5:51 PM88 °FSunny.10 mph18%29.74 "Hg10 mi
4:51 PM90 °FSunny.12 mph13%29.74 "Hg10 mi
3:51 PM93 °FSunny.13 mph10%29.74 "Hg10 mi
2:51 PM93 °FSunny.13 mph18%29.75 "Hg10 mi
1:51 PM91 °FSunny.8 mph18%29.77 "Hg10 mi
12:51 PM88 °FSunny.9 mph31%29.78 "Hg10 mi
11:51 AM86 °FSunny.8 mph42%29.80 "Hg10 mi
10:51 AM81 °FSunny.3 mph47%29.82 "Hg10 mi
9:51 AM77 °FSunny.No wind58%29.82 "Hg10 mi
8:51 AM73 °FSunny.No wind71%29.82 "Hg8 mi
7:51 AM69 °FScattered clouds.No wind81%29.81 "Hg7 mi
6:51 AM68 °FClear.No wind84%29.81 "Hg8 mi
5:51 AM69 °FClear.No wind81%29.79 "Hg10 mi
4:51 AM69 °FPassing clouds.No wind81%29.78 "Hg10 mi
3:51 AM70 °FOvercast.3 mph81%29.78 "Hg8 mi
2:51 AM70 °FOvercast.7 mph81%29.79 "Hg9 mi
1:51 AM71 °FPassing clouds.3 mph81%29.79 "Hg10 mi
12:51 AM71 °FPassing clouds.3 mph81%29.80 "Hg9 mi
11:51 PM
Aug 31
71 °FClear.5 mph78%29.79 "Hg10 mi
10:51 PM72 °FClear.3 mph68%29.79 "Hg10 mi
9:51 PM75 °FClear.5 mph58%29.79 "Hg10 mi
Weather by CustomWeather, © 2014

See weather overviewHow to use our weather pages